This is the latest recevied weather packets stored in our database for station/object SV2ASS-2. If no packets are shown the sender has not sent any weather packets the latest 10 day(s).
| Time | Temp. | Humidity | Pressure | Rain* | Wind** | Luminosity | Snow |
|---|---|---|---|---|---|---|---|
| 1778103762 | 15.56° C | 48% | 1019.5 hPa | - | - | - | - |
| 1778102862 | 16.67° C | 47% | 1019.5 hPa | - | - | - | - |
| 1778101961 | 17.22° C | 45% | 1019.5 hPa | - | - | - | - |
| 1778101063 | 17.22° C | 41% | 1019.4 hPa | - | - | - | - |
| 1778100163 | 17.22° C | 41% | 1019.5 hPa | - | - | - | - |
| 1778099263 | 17.22° C | 41% | 1019.5 hPa | - | - | - | - |
| 1778098363 | 17.22° C | 41% | 1019.4 hPa | - | - | - | - |
| 1778097463 | 17.78° C | 41% | 1019.3 hPa | - | - | - | - |
| 1778096563 | 17.78° C | 40% | 1019.3 hPa | - | - | - | - |
| 1778095663 | 18.89° C | 40% | 1019.4 hPa | - | - | - | - |
| 1778094763 | 17.78° C | 42% | 1019.2 hPa | - | - | - | - |
| 1778093863 | 18.33° C | 42% | 1019.2 hPa | - | - | - | - |
| 1778092963 | 18.33° C | 43% | 1019 hPa | - | - | - | - |
| 1778092062 | 18.89° C | 46% | 1018.9 hPa | - | - | - | - |
| 1778091162 | 18.89° C | 46% | 1018.7 hPa | - | - | - | - |
| 1778090262 | 19.44° C | 46% | 1018.4 hPa | - | - | - | - |
| 1778089362 | 20.56° C | 44% | 1018.3 hPa | - | - | - | - |
| 1778088502 | 21.11° C | 44% | 1018.3 hPa | - | - | - | - |
| 1778088462 | 21.11° C | 44% | 1018.3 hPa | - | - | - | - |
| 1778087562 | 21.67° C | 43% | 1018.1 hPa | - | - | - | - |
| 1778086662 | 22.78° C | 39% | 1018 hPa | - | - | - | - |
| 1778085762 | 23.33° C | 41% | 1018 hPa | - | - | - | - |
| 1778084862 | 23.89° C | 38% | 1017.8 hPa | - | - | - | - |
| 1778083962 | 24.44° C | 35% | 1017.7 hPa | - | - | - | - |
| 1778083061 | 24.44° C | 36% | 1017.7 hPa | - | - | - | - |
* Rain since midnight (hover to see other rain measurements)
** Current wind speed in m/s (hover to see current wind gust speed)